Weather History for Pine Ridge, SD

Change the Weather History Date:

Tuesday, July 16, 2013

  Actual Average Record
Temperature  
Mean Temperature 75 °F 74 °F  
Max Temperature 87 °F 90 °F 107 °F (2006)
Min Temperature 63 °F 59 °F 54 °F (2010)
Degree Days  
Heating Degree Days 0 0  
Month to date heating degree days 0 4  
Since 1 June heating degree days 78 91  
Since 1 July heating degree days 0 4  
Cooling Degree Days 10 9  
Month to date cooling degree days 162 129  
Year to date cooling degree days 262 256  
Since 1 June cooling degree days 245 239  
Growing Degree Days 24 (Base 50)    
Moisture  
Dew Point 55 °F    
Average Humidity 55    
Maximum Humidity 73    
Minimum Humidity 37    
Precipitation  
Precipitation 0.00 in 0.06 in 0.00 in (2014)
Month to date precipitation 0.78 1.23  
Year to date precipitation 10.65 10.90  
Sea Level Pressure  
Sea Level Pressure 30.06 in    
Wind  
Wind Speed 13 mph (South)    
Max Wind Speed 24 mph    
Max Gust Speed 31 mph    
Visibility 10 miles    
Events      
T = Trace of Precipitation, MM = Missing Value Source: NWS Daily Summary

Daily Weather History Graph

Daily Weather History Graph

Search for Another Location

Airport:

Trip Planner

Search our weather history database for the weather conditions in past years. The results will help you decide how hot, cold, wet, or windy it might be!

Date:

Astronomy

Jul. 16, 2013 Rise Set
Actual Time 5:25 AM MDT 8:26 PM MDT
Civil Twilight 4:51 AM MDT 9:00 PM MDT
Nautical Twilight 4:08 AM MDT 9:43 PM MDT
Astronomical Twilight 3:16 AM MDT 10:34 PM MDT
Moon 2:06 PM MDT (7/16) 12:01 AM MDT (7/16)
Length of Visible Light 16h 08m
Length of Day
15h 00m
First Quarter, 57% of the Moon is Illuminated
Jul 16
First Quarter
Jul 22
Full
Jul 29
Last Quarter
Aug 6
New
Aug 14
First Quarter

Hourly Weather History & Observations

Time (MDT) Temp. Heat Index Dew Point Humidity Pressure Visibility Wind Dir Wind Speed Gust Speed Precip Events Conditions
12:52 AM 70.0 °F - 50.0 °F 49% 30.02 in 10.0 mi South 12.7 mph 21.9 mph N/A   Clear
1:52 AM 66.9 °F - 51.1 °F 57% 30.02 in 10.0 mi South 9.2 mph - N/A   Clear
2:52 AM 66.0 °F - 52.0 °F 60% 30.03 in 10.0 mi South 9.2 mph - N/A   Clear
3:52 AM 63.0 °F - 52.0 °F 67% 30.03 in 10.0 mi South 11.5 mph - N/A   Clear
4:52 AM 64.9 °F - 54.0 °F 68% 30.03 in 10.0 mi South 15.0 mph - N/A   Clear
5:52 AM 64.9 °F - 55.0 °F 70% 30.04 in 10.0 mi South 16.1 mph 23.0 mph N/A   Clear
6:52 AM 66.0 °F - 55.0 °F 68% 30.05 in 10.0 mi South 12.7 mph - N/A   Clear
7:52 AM 71.1 °F - 55.9 °F 59% 30.06 in 10.0 mi South 11.5 mph - N/A   Clear
8:52 AM 75.0 °F - 55.9 °F 51% 30.07 in 10.0 mi South 12.7 mph - N/A   Clear
9:52 AM 79.0 °F - 55.0 °F 44% 30.06 in 10.0 mi South 12.7 mph - N/A   Clear
10:52 AM 81.0 °F 80.7 °F 55.0 °F 41% 30.07 in 10.0 mi South 11.5 mph 19.6 mph N/A   Clear
11:52 AM 82.9 °F 82.1 °F 55.9 °F 39% 30.07 in 10.0 mi SSW 9.2 mph 21.9 mph N/A   Clear
12:52 PM 84.0 °F 83.0 °F 55.9 °F 38% 30.07 in 10.0 mi South 12.7 mph 17.3 mph N/A   Clear
1:52 PM 84.9 °F 83.9 °F 57.0 °F 38% 30.07 in 10.0 mi South 9.2 mph 21.9 mph N/A   Clear
2:52 PM 84.9 °F 83.9 °F 57.0 °F 38% 30.06 in 10.0 mi SSE 12.7 mph 23.0 mph N/A   Clear
3:52 PM 84.9 °F 83.9 °F 57.0 °F 38% 30.07 in 10.0 mi SSE 15.0 mph 20.7 mph N/A   Clear
4:52 PM 84.9 °F 83.7 °F 55.9 °F 37% 30.06 in 10.0 mi SSE 17.3 mph 25.3 mph N/A   Clear
5:52 PM 84.9 °F 83.7 °F 55.9 °F 37% 30.05 in 10.0 mi South 16.1 mph 24.2 mph N/A   Clear
6:52 PM 82.9 °F 82.0 °F 55.0 °F 38% 30.05 in 10.0 mi South 12.7 mph 20.7 mph N/A   Clear
7:52 PM 80.1 °F 80.1 °F 55.0 °F 42% 30.06 in 10.0 mi South 12.7 mph 18.4 mph N/A   Clear
8:52 PM 77.0 °F - 55.0 °F 47% 30.08 in 10.0 mi SSE 8.1 mph - N/A   Clear
9:52 PM 75.9 °F - 55.0 °F 48% 30.09 in 10.0 mi South 13.8 mph 19.6 mph N/A   Clear
10:52 PM 73.9 °F - 57.9 °F 57% 30.10 in 10.0 mi South 15.0 mph 24.2 mph N/A   Clear
11:52 PM 73.9 °F - 57.9 °F 57% 30.11 in 10.0 mi South 19.6 mph 27.6 mph N/A   Clear